Вернуться в каталог

JILIN-01 KUANFU 02B 1

АктивенНаукаSSO
NORAD 61189·PAYLOAD·🇨🇳 China

Запущен Sep 20, 2024 с Taiyuan Satellite Launch Center

Loading…

Ближайшие Пролёты (ближайшие 24 часа)

TLE

СвежийSource: Space-Track

Эпоха: Sep 14, 2026, 13:27 UTC

1 61189U 24169A   26257.56105053  .00002407  00000-0  15455-3 0  9990
2 61189  97.5550 345.7330 0004235  97.9884 262.1826 15.09400867109302

Отслеживайте JILIN-01 KUANFU 02B 1 в реальном времени с AllMySat

Download on the App Store